| |
Missouri Department of Transportation

Social Media Facebook Twitter Flickr Blog YouTube RSS

Current METAR Information for All MoDOT Locations 
AWOS Home - General Info for all Airports
Current AWOS for all Airports - Current METAR for all Airports
Glossary - Disclaimer - Other Links


Automated Weather Observation System
Date: 10-25-2014
 
Location Current METAR Record
HANNIBAL METAR KHAE 250601Z AUTO 24005KT 10SM CLR 17/15 A2997 RMK AO2
HARRISONVILLE  No current data available
LEBANON METAR KLBO 250615Z AUTO 24005KT 10SM CLR 17/14 A3005 RMK AO2
MALDEN  No current data available
MARSHALL METAR KMHL 250646Z AUTO 24004KT 10SM BKN046 19/17 A3000 RMK AO2
MARYVILLE  No current data available
MEXICO  No current data available
MOBERLY  No current data available
NEVADA METAR KNVD 250636Z AUTO 20007KT 10SM CLR 16/15 A3003 RMK AO2
PIEDMONT  No current data available
SIKESTON  No current data available
SULLIVAN METAR KUUV 250618Z AUTO 22006KT 10SM CLR 16/14 A3004 RMK AO2
WARSAW  No current data available
About Us
How Do I...
Contact Us
Missouri Department of Transportation
Central Office
105 W. Capitol Avenue
Jefferson City, MO 65102
1-888-ASK-MODOT (275-6636)
1-866-831-6277 (Motor Carrier Services)
Drivers License Offices
horz_bar
| | |
Missouri State Government
© 2013 Missouri Department of Transportation. All Rights Reserved.   Privacy Policy.
 
 
 
 
RSS FeedYoutubeBlogFlickrTwitter Facebook